Погода в Ипсуиче

Великобритания     52°03′30″N   1°11′41″E
темп.,
°C
ветер,
м/с
пор.,
м/с
влажн.,
%
обл.,
%
осадки,
мм/ч
давл.,
гПа
погр.,
м
8 декабря, ср
ср800:00+7юз10177674 1.1 9851004
03:00+6юз10157777 0.0 9861024
06:00+6юз10167310 0.0 9881042
09:00+5юз1016725 0.0 9901006
12:00+6юз10167216 0.0 9911164
15:00+6юз91379100 0.1 9931040
18:00+5зюз8147228 0.1 996840
21:00+5юз8147282 0.0 997792
9 декабря, чт
чт900:00+4зюз71297100 1.8 997802
03:00+5зюз71190100 2.4 998747
06:00+5з71187100 2.6 999832
09:00+6з7128295 0.5 1000743
12:00+5зюз71182100 0.6 1000526
15:00+5зюз6108391 0.0 1000366
18:00+5юз598143 0.0 1000333
21:00+5ю4881100 0.0 997367
10 декабря, пт
пт1000:00+7ю71091100 0.9 993762
03:00+6зсз2394100 6.3 991401
06:00+5сз101693100 12.3 9921080
09:00+5сз101677100 0.4 9941024
12:00+5сз101672100 0.4 9971172
15:00+5сз91669100 0.0 10001038
18:00+5сз91672100 0.0 1003829
21:00+4сз8167799 0.0 1007613
11 декабря, сб
сб1100:00+3сз7148311 0.0 1010467
03:00+2сз613870 0.0 1013346
06:00+2сз510914 0.0 1015223
09:00+2зсз46905 0.0 1018150
12:00+5з46795 0.0 1019239
15:00+5юз368693 0.0 1020200
18:00+4юз4987100 0.0 1020256
21:00+6ююз61193100 1.2 1020485
12 декабря, вс
вс1200:00+8ююз81596100 3.8 1018703
03:00+9юз61397100 1.8 1017414
06:00+10зюз61395100 3.0 1018406
09:00+10зюз6139582 1.0 1019387
12:00+11зюз6129392 1.2 1019373
15:00+11юз5109374 0.0 1020317
18:00+10юз7149379 0.0 1020404
21:00+10ююз71590100 0.0 1020427